Presure
180 183 197 190 195 200 159 212 203 200 192 188 177 198 201 202 213 211 203 227 302 286 276 286 232 217 208 206 205 202 209 216 224 224 235 238 243 197 200 186 191 184 207
176 178 184 178 200 194 173 205 158 206 208 212 224 208 183 237 207 209 234 214 261 290 272 272 268 239 218 211 204 216 214 256 235 201 251 257 258 246 235 169 196 194 189
179 194 175 199 178 190 184 198 169 215 203 192 230 230 217 191 236 202 210 215 226 295 291 265 258 270 252 230 212 210 205 207 220 215 176 251 257 251 255 257 255 256 222
176 169 184 178 190 194 198 197 191 172 204 217 184 194 230 196 222 210 209 224 219 296 275 274 266 268 251 245 243 233 214 207 205 210 220 211 237 263 293 257 252 245 244
189 168 178 192 183 182 172 163 198 195 177 205 211 185 240 231 236 205 218 209 249 241 284 278 269 258 269 246 241 190 237 249 212 205 210 227 259 250 241 292 258 248 248
178 170 181 166 191 197 200 195 191 173 229 213 220 236 244 227 193 228 203 235 215 239 287 271 269 254 258 249 243 241 235 219 237 204 224 207 212 221 251 249 240 284 222
184 174 181 166 169 200 182 198 206 189 186 220 210 212 210 238 296 207 203 260 237 287 276 274 263 259 261 248 243 244 240 239 232 228 211 219 241 202 234 236 239 232 231
180 180 183 182 209 196 197 185 196 189 191 204 213 213 232 257 243 247 206 270 271 286 274 270 262 258 252 259 254 239 236 238 233 238 233 210 205 222 228 232 235 239 237
168 171 198 187 182 186 198 204 210 201 210 237 261 242 240 220 296 232 272 263 292 284 268 263 265 264 261 262 257 247 241 237 241 240 233 222 210 226 204 224 234 227 229
176 183 169 179 196 184 180 187 221 201 229 229 253 242 217 243 267 266 275 237 273 281 269 262 262 263 257 258 257 251 245 242 242 240 240 228 194 215 236 226 223 223 229
170 167 176 197 172 192 215 212 218 224 260 238 243 233 295 232 286 277 222 260 292 279 266 264 262 263 262 257 253 252 251 242 245 242 242 240 239 234 231 237 231 218 224
174 179 199 203 201 208 212 214 216 249 253 241 240 232 299 288 281 269 276 256 282 270 270 274 267 264 263 261 253 252 251 248 243 239 241 240 239 239 236 218 225 241 224
174 175 187 186 206 205 206 216 232 259 251 232 228 300 294 285 277 270 275 268 277 269 275 279 275 276 270 267 265 256 252 250 250 243 234 238 243 233 237 236 228 224 236
193 195 190 210 199 206 217 220 242 258 252 260 260 299 290 281 274 272 282 273 270 276 280 280 273 270 271 267 268 263 256 251 245 251 247 241 240 244 242 240 239 244 234
188 186 170 208 219 223 229 239 262 246 228 306 303 290 287 276 274 272 265 276 272 277 278 273 270 261 261 257 256 253 253 252 251 247 242 240 232 240 239 240 243 243 244
195 166 206 151 224 225 247 271 268 260 335 314 294 291 283 277 273 276 267 274 270 277 285 281 273 267 265 256 254 254 253 254 254 251 251 247 244 242 246 244 246 251 251
192 203 222 214 223 241 252 259 318 277 314 312 298 290 279 277 275 269 273 275 277 269 275 281 281 279 280 273 263 256 254 253 254 256 253 252 248 252 252 251 251 255 261
205 174 220 230 254 323 384 362 328 309 309 308 296 291 284 275 270 270 277 277 279 276 261 280 301 305 293 289 286 280 274 270 277 275 277 276 273 269 266 264 263 264 260
203 213 250 267 363 377 340 331 317 315 312 306 303 296 286 281 274 277 281 282 271 266 279 305 292 287 294 292 289 291 292 280 272 270 267 265 262 257 256 258 269 269 264
212 260 254 376 333 339 331 320 318 316 317 307 286 277 281 278 276 286 288 268 268 280 243 232 230 288 280 278 276 268 265 266 263 259 257 259 274 274 268 265 263 263 267
274 308 356 334 339 327 320 328 315 303 307 292 280 291 281 283 291 293 290 262 277 257 239 227 268 229 230 260 263 267 266 270 276 276 273 267 263 257 255 262 269 278 313
263 346 334 325 319 325 327 314 303 302 298 294 292 296 285 294 306 300 277 255 273 250 238 228 219 227 235 242 248 236 238 248 251 260 258 263 258 261 268 283 356 342 321
338 332 319 328 327 322 316 310 305 314 308 304 304 311 311 310 309 296 268 255 265 253 238 229 228 222 221 238 249 247 245 242 244 251 255 261 272 287 344 341 320 308 294
324 327 332 336 326 321 314 322 319 306 335 333 325 321 316 307 302 292 266 259 257 257 243 235 227 223 222 229 243 255 262 245 247 245 263 276 289 332 330 308 299 277 280
329 332 314 325 320 317 320 327 320 319 318 329 329 324 315 307 299 290 277 261 260 253 250 239 231 226 224 225 242 253 252 255 260 253 277 286 303 327 301 259 276 274 269
332 327 326 321 328 323 315 308 325 317 319 322 320 324 324 307 299 286 285 264 257 253 249 242 237 229 227 226 238 259 253 256 245 283 286 288 301 260 261 278 267 268 266
Wind_Speed
53 56 76 70 75 77 67 84 66 69 62 57 67 52 60 53 48 54 62 51 59 58 62 64 82 83 76 73 73 72 71 77 82 79 85 87 87 99 100 94 98 96 94
52 56 65 57 79 66 59 79 69 68 63 72 77 74 69 77 52 52 57 53 51 58 58 64 69 85 84 81 76 82 80 87 84 74 92 89 93 89 92 87 102 100 101
66 87 49 93 53 68 60 76 68 99 60 70 89 72 76 73 73 61 59 55 52 55 58 60 67 61 82 90 82 80 75 73 81 78 70 74 80 87 88 87 88 91 104
67 55 81 67 86 93 97 89 67 67 86 90 63 79 76 73 56 58 61 55 56 51 52 61 63 61 73 83 86 91 86 79 75 78 82 74 74 71 69 83 87 89 88
90 61 84 97 77 77 73 74 102 91 63 92 70 73 89 77 69 64 57 64 47 50 58 60 61 62 60 71 79 70 85 76 85 76 77 81 64 68 75 59 78 81 84
82 70 91 63 101 101 107 99 94 66 99 100 97 98 92 83 74 55 68 58 57 48 55 59 61 63 64 72 79 79 86 87 83 77 84 78 79 74 60 63 74 62 85
93 85 96 80 68 105 84 99 108 93 79 98 88 88 84 92 62 64 67 46 56 53 53 57 59 63 66 71 73 73 78 76 82 87 82 83 70 75 72 71 69 75 77
97 100 105 106 108 110 112 92 104 83 90 98 101 94 101 79 82 58 66 43 51 53 54 57 60 62 64 70 72 75 78 78 79 79 79 81 76 78 74 71 70 70 71
83 89 104 109 103 103 107 112 111 106 108 108 98 94 96 84 53 68 52 45 53 53 54 56 60 61 64 67 69 72 77 76 75 76 79 84 78 78 71 73 72 72 71
94 104 93 104 114 111 102 106 111 103 117 112 100 95 90 94 67 59 50 58 55 53 55 56 61 62 63 65 68 71 75 74 75 75 76 78 71 75 74 75 74 73 73
94 91 113 111 101 112 118 112 116 125 119 108 102 100 66 86 53 52 60 48 51 51 52 56 60 64 64 66 67 70 71 72 71 69 70 71 72 74 75 75 76 74 73
107 115 115 115 112 117 116 114 115 126 110 103 102 99 59 56 51 52 52 49 49 49 54 59 61 65 67 66 66 67 68 69 68 69 69 70 71 72 73 76 73 76 75
112 112 117 107 113 116 113 117 131 121 113 100 101 64 57 53 52 52 52 49 48 47 53 56 58 61 66 65 64 65 65 66 66 66 68 67 68 71 71 74 75 75 76
126 123 124 126 118 115 116 121 132 114 108 101 86 57 55 53 51 52 52 47 48 47 50 47 52 55 58 59 60 61 64 63 63 65 66 67 68 69 71 72 73 74 76
125 119 84 126 130 133 135 141 120 108 98 70 54 55 52 52 50 50 47 46 47 46 47 47 51 54 55 56 57 58 60 61 63 63 64 64 67 67 70 70 70 72 73
132 77 128 50 134 134 141 117 106 105 58 57 52 50 52 48 49 49 47 46 47 49 49 49 53 54 56 58 58 59 60 61 60 60 62 65 67 67 69 69 70 70 71
128 131 138 131 133 138 128 115 77 85 59 49 50 48 49 47 47 47 47 45 46 47 47 49 51 53 58 60 60 62 60 59 60 62 63 64 65 66 67 68 69 70 70
138 88 136 137 140 99 56 55 64 62 51 46 46 46 45 45 45 45 46 46 45 44 42 44 44 42 44 48 52 59 60 58 53 55 53 52 52 54 58 61 63 65 66
139 139 144 137 75 54 64 60 59 54 46 46 43 43 44 44 44 46 46 44 40 40 40 38 37 38 39 40 41 40 37 37 40 41 44 46 49 51 55 58 58 59 59
143 142 133 61 73 60 60 57 55 44 41 41 43 44 42 42 44 46 43 39 38 37 36 35 33 34 35 36 33 32 35 37 39 42 45 47 47 49 51 52 54 56 58
136 103 60 66 58 58 57 50 46 43 41 43 44 44 41 42 44 43 40 37 36 36 36 34 32 31 32 33 31 32 35 37 39 40 40 42 44 47 49 52 54 56 49
124 62 63 64 61 55 49 47 43 44 43 43 43 46 40 43 44 40 38 38 36 38 37 34 36 34 33 31 31 32 33 34 35 36 38 42 46 48 50 52 33 28 27
64 65 66 58 55 51 49 46 45 42 40 41 43 44 42 42 40 38 39 40 38 40 38 36 35 36 35 32 32 33 35 36 37 38 40 43 47 46 38 27 24 24 24
65 62 56 50 51 51 47 44 41 38 39 40 40 39 37 39 38 38 43 43 42 40 39 37 36 37 36 34 33 34 35 37 38 37 40 41 40 38 27 24 23 25 21
59 54 52 50 50 47 44 40 39 37 36 38 38 39 38 39 39 41 44 45 41 40 38 38 38 38 36 35 35 35 36 37 39 37 36 36 36 28 26 29 23 21 22
51 51 50 51 48 45 42 38 38 37 37 36 35 37 40 38 39 40 41 44 41 41 40 39 38 38 37 37 37 37 37 38 36 36 33 32 29 28 28 22 23 23 24
Wind_Direction
326 317 327 329 330 329 279 327 329 312 297 289 283 295 294 296 303 295 287 305 265 262 258 254 241 248 254 254 253 252 255 256 259 259 258 255 254 248 249 255 253 256 252
322 323 325 312 327 328 287 325 284 321 326 323 323 305 289 327 298 292 318 293 286 261 260 256 249 243 248 253 255 256 257 254 256 254 254 259 261 256 256 253 252 254 255
328 323 318 321 309 322 303 327 285 325 313 306 322 313 306 290 313 286 288 291 299 262 256 252 248 247 246 244 252 255 255 256 259 257 251 253 251 256 259 258 256 256 252
331 319 324 319 321 322 323 329 320 290 323 318 292 302 306 302 301 284 286 301 293 259 257 251 251 248 243 245 248 249 253 254 255 257 258 257 256 254 252 253 256 258 259
317 321 325 319 321 325 303 290 322 321 293 317 303 288 316 320 315 286 284 284 296 295 256 251 251 248 242 243 244 254 250 252 255 257 259 258 256 255 255 255 248 254 252
327 317 319 302 316 312 318 320 321 295 317 316 315 315 314 314 289 299 285 292 290 290 254 255 253 249 239 242 247 246 248 253 252 259 256 260 260 259 256 254 253 255 254
319 323 319 304 301 314 317 314 313 317 312 312 315 313 308 314 301 285 283 285 280 258 255 253 252 251 244 248 247 248 249 250 251 254 256 258 256 260 261 259 257 255 255
319 317 316 315 310 314 312 315 313 304 310 312 311 313 311 309 309 297 284 282 272 256 253 253 252 252 250 246 244 246 249 248 249 252 254 257 257 260 261 263 264 262 260
317 319 308 313 316 312 313 312 312 314 314 317 315 309 310 311 292 297 282 281 265 255 251 255 254 250 248 247 244 244 248 251 252 252 252 255 258 260 263 265 264 266 267
310 312 312 315 307 312 310 311 312 310 316 313 312 309 307 306 299 292 281 283 271 256 250 252 255 253 250 247 245 245 248 250 251 251 253 256 259 261 263 265 267 268 268
312 312 312 308 309 309 312 312 314 317 313 313 311 306 304 306 287 282 290 277 263 257 255 253 254 254 251 248 248 246 247 250 252 253 255 255 256 256 259 260 262 266 267
311 307 307 308 306 309 313 313 313 315 312 311 308 306 296 288 282 279 277 275 264 262 259 255 253 252 252 250 249 249 249 250 249 251 251 254 255 257 258 260 263 260 266
308 308 309 307 307 311 311 312 313 312 310 306 305 299 289 284 280 276 275 273 266 264 260 258 256 254 253 253 251 250 250 252 252 252 253 255 256 257 257 258 260 262 263
303 303 306 305 308 309 311 312 313 309 309 305 300 288 284 278 276 274 272 272 266 261 260 256 254 256 253 253 252 250 249 251 251 252 254 255 256 257 258 259 260 260 262
303 307 300 306 307 308 309 310 308 310 303 293 284 285 278 275 273 272 271 270 267 262 256 252 250 251 252 252 252 252 251 251 251 253 255 256 256 258 259 260 262 262 264
306 302 306 296 306 309 309 307 305 306 287 282 283 278 274 272 271 269 268 266 265 263 259 253 252 251 249 251 252 252 254 255 256 255 256 257 258 260 263 264 265 265 266
308 308 304 307 306 307 308 306 298 299 287 280 278 272 270 271 268 267 268 265 263 261 262 261 260 258 256 252 250 252 254 256 257 258 258 259 261 263 264 265 266 267 270
307 306 307 306 306 300 286 286 289 288 283 277 274 269 266 265 265 267 265 262 260 261 261 262 262 256 254 254 253 253 255 257 258 259 261 263 264 265 265 266 267 269 271
305 305 304 305 292 285 290 287 286 280 277 273 268 263 263 262 264 265 261 259 257 257 260 257 252 251 250 249 247 249 251 250 253 257 259 261 263 264 265 266 271 271 272
303 303 303 284 295 288 286 285 281 274 268 267 264 263 259 261 261 261 257 251 252 253 247 251 256 240 240 245 247 249 253 256 257 257 259 263 266 265 268 270 271 273 276
302 298 286 293 287 288 285 279 275 274 268 266 264 262 259 261 260 256 250 247 248 243 246 249 246 255 254 253 251 253 255 258 258 258 261 263 267 269 270 273 277 278 276
299 289 291 293 291 284 280 276 274 271 269 266 263 260 259 259 255 250 242 245 241 240 242 245 250 254 255 256 256 257 258 259 261 264 266 270 270 274 277 277 277 266 258
289 290 292 288 284 281 278 275 274 270 265 260 257 253 250 250 248 243 238 242 238 237 241 242 246 251 256 259 260 260 261 262 265 267 270 272 274 278 286 273 260 252 251
289 288 286 281 280 278 277 275 272 266 262 256 250 249 245 244 242 238 235 238 238 237 239 242 244 249 254 259 261 261 261 265 268 273 273 275 280 289 274 259 250 256 254
283 282 281 279 278 279 277 274 270 265 258 253 249 247 242 239 238 234 234 237 238 238 238 240 243 249 254 260 264 263 263 267 268 272 274 277 288 277 265 272 260 259 256
278 277 277 277 276 275 273 271 268 264 259 254 250 247 241 235 236 235 234 236 237 237 238 240 244 249 254 259 264 263 264 266 269 271 273 280 281 275 271 257 262 260 258